O'Neill, NE

11:52 AM CST on December 09, 2019 (GMT -0600)
The O'Neill Municipal-Baker

Weather History for KONL - June, 2019

Change the Weather History Date:

Thursday, June 13, 2019

  Actual Average Record
Temperature  
Mean Temperature 64 °F -  
Max Temperature 80 °F 83 °F 101 °F (1952)
Min Temperature 49 °F 55 °F 39 °F (2014)
Growing Degree Days 14 (Base 50)    
Moisture  
Dew Point 50 °F    
Average Humidity 59    
Maximum Humidity 86    
Minimum Humidity 36    
Precipitation  
Precipitation 0.00 in - - ()
Sea Level Pressure  
Sea Level Pressure 29.98 in    
Wind  
Wind Speed 7 mph ()    
Max Wind Speed 17 mph    
Max Gust Speed 23 mph    
Visibility 10.0 miles    
Events      
Averages and records for this station are not official NWS values.
T = Trace of Precipitation, MM = Missing Value Source: Averaged Metar Reports

Daily Weather History Graph

Daily Weather History Graph

Search for Another Location

Airport or City:

Astronomy

Jun. 13, 2019 Rise Set
Actual Time 5:56 AM CDT 9:12 PM CDT
Civil Twilight 5:22 AM CDT 9:47 PM CDT
Nautical Twilight 4:37 AM CDT 10:32 PM CDT
Astronomical Twilight 3:42 AM CDT 11:27 PM CDT
Moon 5:24 PM CDT (6/13) 3:49 AM CDT (6/13)
Length of Visible Light 16h 25m
Length of Day
15h 15m
Waxing Gibbous, 85% of the Moon is Illuminated
Jun 13
Waxing Gibbous
Jun 17
Full
Jun 25
Last Quarter
Jul 2
New
Jul 9
First Quarter

Hourly Weather History & Observations

Time (CDT) Temp. Dew Point Humidity Pressure Visibility Wind Dir Wind Speed Gust Speed Precip Events Conditions
12:10 AM 57.2 °F 46.4 °F 67% 30.10 in 10.0 mi SSE 3.5 mph - N/A   Clear
12:35 AM 54.3 °F 46.4 °F 75% 30.10 in 10.0 mi South 4.6 mph - N/A   Clear
12:55 AM 52.5 °F 47.1 °F 82% 30.09 in 10.0 mi SSW 5.8 mph - N/A   Clear
1:15 AM 52.0 °F 47.7 °F 85% 30.08 in 10.0 mi SSW 6.9 mph - N/A   Clear
1:35 AM 52.5 °F 47.5 °F 83% 30.08 in 10.0 mi South 5.8 mph - N/A   Clear
1:55 AM 52.9 °F 46.9 °F 80% 30.08 in 10.0 mi South 5.8 mph - N/A   Clear
2:15 AM 52.2 °F 46.9 °F 82% 30.07 in 10.0 mi South 4.6 mph - N/A   Clear
2:35 AM 53.1 °F 46.4 °F 78% 30.07 in 10.0 mi Calm Calm - N/A   Clear
2:55 AM 52.3 °F 46.6 °F 81% 30.07 in 10.0 mi South 4.6 mph - N/A   Clear
3:15 AM 54.1 °F 45.5 °F 73% 30.07 in 10.0 mi SE 3.5 mph - N/A   Clear
3:35 AM 53.1 °F 45.5 °F 75% 30.07 in 10.0 mi SSE 5.8 mph - N/A   Clear
3:55 AM 52.3 °F 46.0 °F 79% 30.07 in 10.0 mi SSE 4.6 mph - N/A   Clear
4:15 AM 51.6 °F 45.5 °F 80% 30.07 in 10.0 mi SSE 4.6 mph - N/A   Clear
4:35 AM 50.4 °F 45.5 °F 83% 30.07 in 10.0 mi South 5.8 mph - N/A   Clear
4:55 AM 50.2 °F 44.8 °F 82% 30.06 in 10.0 mi SSE 6.9 mph - N/A   Clear
5:15 AM 49.6 °F 45.0 °F 84% 30.06 in 10.0 mi SSE 6.9 mph - N/A   Clear
5:35 AM 50.2 °F 45.1 °F 83% 30.07 in 10.0 mi SSE 5.8 mph - N/A   Clear
5:55 AM 49.1 °F 44.8 °F 85% 30.07 in 10.0 mi SSE 5.8 mph - N/A   Clear
6:15 AM 49.1 °F 45.0 °F 86% 30.07 in 10.0 mi SSE 6.9 mph - N/A   Clear
6:35 AM 50.2 °F 45.5 °F 84% 30.07 in 10.0 mi SSE 5.8 mph - N/A   Clear
6:55 AM 51.1 °F 46.0 °F 83% 30.07 in 10.0 mi SSE 6.9 mph - N/A   Clear
7:15 AM 52.5 °F 46.8 °F 81% 30.07 in 10.0 mi SSE 4.6 mph - N/A   Clear
7:35 AM 54.5 °F 47.5 °F 77% 30.07 in 10.0 mi SSE 4.6 mph - N/A   Clear
7:55 AM 55.8 °F 48.2 °F 76% 30.07 in 10.0 mi SSE 6.9 mph - N/A   Clear
8:15 AM 57.6 °F 49.8 °F 75% 30.07 in 10.0 mi South 4.6 mph - N/A   Clear
8:35 AM 59.9 °F 50.7 °F 72% 30.07 in 10.0 mi South 4.6 mph - N/A   Clear
8:55 AM 62.8 °F 50.9 °F 65% 30.07 in 10.0 mi SSW 4.6 mph - N/A   Clear
9:15 AM 65.3 °F 50.9 °F 60% 30.06 in 10.0 mi SW 6.9 mph - N/A   Clear
9:35 AM 67.3 °F 51.1 °F 56% 30.06 in 10.0 mi SSW 9.2 mph - N/A   Clear
9:55 AM 68.5 °F 51.3 °F 54% 30.05 in 10.0 mi SSW 8.1 mph - N/A   Clear
10:15 AM 69.8 °F 51.6 °F 52% 30.04 in 10.0 mi SW 9.2 mph - N/A   Clear
10:35 AM 71.1 °F 51.3 °F 49% 30.04 in 10.0 mi SW 8.1 mph - N/A   Clear
10:55 AM 71.1 °F 51.8 °F 50% 30.03 in 10.0 mi SW 9.2 mph - N/A   Clear
11:15 AM 72.1 °F 51.3 °F 48% 30.02 in 10.0 mi SW 6.9 mph - N/A   Clear
11:35 AM 72.9 °F 53.2 °F 50% 30.02 in 10.0 mi SSW 6.9 mph - N/A   Clear
11:55 AM 73.8 °F 52.3 °F 47% 30.02 in 10.0 mi SSW 8.1 mph - N/A   Clear
12:15 PM 74.3 °F 53.8 °F 49% 30.01 in 10.0 mi South 6.9 mph - N/A   Clear
12:35 PM 75.0 °F 53.2 °F 47% 30.00 in 10.0 mi SW 9.2 mph - N/A   Clear
12:55 PM 74.8 °F 54.0 °F 48% 30.00 in 10.0 mi South 9.2 mph - N/A   Clear
1:15 PM 75.9 °F 54.3 °F 47% 29.99 in 10.0 mi South 6.9 mph - N/A   Clear
1:35 PM 76.5 °F 52.7 °F 43% 29.99 in 10.0 mi SSE 10.4 mph 17.3 mph N/A   Clear
1:55 PM 77.2 °F 52.7 °F 42% 29.98 in 10.0 mi South 11.5 mph - N/A   Clear
2:15 PM 77.5 °F 52.2 °F 41% 29.97 in 10.0 mi South 10.4 mph 17.3 mph N/A   Clear
2:35 PM 76.6 °F 49.3 °F 38% 29.96 in 10.0 mi South 10.4 mph 17.3 mph N/A   Clear
2:55 PM 77.5 °F 52.3 °F 41% 29.95 in 10.0 mi South 10.4 mph 16.1 mph N/A   Clear
3:15 PM 78.8 °F 51.3 °F 38% 29.94 in 10.0 mi South 11.5 mph - N/A   Clear
3:35 PM 78.6 °F 52.0 °F 39% 29.93 in 10.0 mi South 13.8 mph - N/A   Clear
3:55 PM 79.7 °F 51.6 °F 38% 29.93 in 10.0 mi South 13.8 mph 19.6 mph N/A   Scattered Clouds
4:15 PM 79.7 °F 50.4 °F 36% 29.92 in 10.0 mi South 9.2 mph - N/A   Mostly Cloudy
4:35 PM 79.5 °F 50.7 °F 36% 29.92 in 10.0 mi South 16.1 mph 21.9 mph N/A   Mostly Cloudy
4:55 PM 80.2 °F 51.3 °F 36% 29.91 in 10.0 mi SE 13.8 mph - N/A   Mostly Cloudy
5:15 PM 80.1 °F 52.3 °F 38% 29.90 in 10.0 mi SSE 9.2 mph 16.1 mph N/A   Mostly Cloudy
5:35 PM 77.5 °F 54.7 °F 45% 29.90 in 10.0 mi South 10.4 mph - N/A   Mostly Cloudy
5:55 PM 78.1 °F 54.1 °F 43% 29.89 in 10.0 mi South 8.1 mph - N/A   Mostly Cloudy
6:15 PM 77.9 °F 54.5 °F 44% 29.89 in 10.0 mi South 8.1 mph - N/A   Mostly Cloudy
6:35 PM 77.5 °F 54.0 °F 44% 29.88 in 10.0 mi South 8.1 mph - N/A   Scattered Clouds
6:55 PM 76.8 °F 54.0 °F 45% 29.88 in 10.0 mi South 8.1 mph - N/A   Clear
7:15 PM 76.1 °F 54.5 °F 47% 29.88 in 10.0 mi South 9.2 mph - N/A   Clear
7:35 PM 75.0 °F 56.1 °F 52% 29.87 in 10.0 mi SSE 6.9 mph - N/A   Clear
7:55 PM 74.7 °F 55.6 °F 51% 29.85 in 10.0 mi SSE 9.2 mph - N/A   Clear
8:15 PM 74.7 °F 53.8 °F 48% 29.85 in 10.0 mi SSE 9.2 mph - N/A   Clear
8:35 PM 73.6 °F 53.4 °F 49% 29.84 in 10.0 mi SSE 9.2 mph - N/A   Clear
8:55 PM 72.0 °F 53.2 °F 52% 29.84 in 10.0 mi SSE 9.2 mph - N/A   Clear
9:15 PM 71.2 °F 52.7 °F 52% 29.85 in 10.0 mi SSE 8.1 mph - N/A   Clear
9:35 PM 70.3 °F 52.9 °F 54% 29.85 in 10.0 mi SSE 9.2 mph - N/A   Clear
9:55 PM 69.8 °F 52.9 °F 55% 29.85 in 10.0 mi SSE 10.4 mph - N/A   Scattered Clouds
10:15 PM 69.3 °F 52.0 °F 54% 29.85 in 10.0 mi SSE 10.4 mph - N/A   Scattered Clouds
10:35 PM 68.4 °F 52.0 °F 56% 29.85 in 10.0 mi SSE 10.4 mph - N/A   Clear
10:55 PM 68.9 °F 50.9 °F 53% 29.84 in 10.0 mi SSE 11.5 mph 18.4 mph N/A   Clear
11:15 PM 68.9 °F 50.2 °F 51% 29.84 in 10.0 mi SSE 13.8 mph 18.4 mph N/A   Scattered Clouds
11:35 PM 69.4 °F 49.5 °F 49% 29.85 in 10.0 mi South 16.1 mph 21.9 mph N/A   Mostly Cloudy
11:55 PM 69.1 °F 49.1 °F 49% 29.84 in 10.0 mi South 17.3 mph 23.0 mph N/A   Scattered Clouds